Location: Unspecified
(42.3650°N, 71.1030°W)
Time: 10:34:30
(UTC+00:00)

Tiros 1 - Pass Details

Date: 25 June 2024
Orbit: 624 x 656 km, 48.4° (Epoch: 20 July)

Event Time Altitude Azimuth Distance (km) Brightness Sun altitude
Rises 06:26:04 0° 283° (WNW) 2,904 10.4 -20.4°
Reaches altitude 10° 06:28:31 10° 291° (WNW) 2,000 9.6 -20.2°
Maximum altitude 06:32:49 38° 0° (N) 958 8.5 -19.9°
Drops below altitude 10° 06:37:10 10° 70° (ENE) 2,015 10.3 -19.5°
Sets 06:39:38 0° 78° (ENE) 2,928 11.1 -19.3°
